« Back
NWS Peachtree City, Ga » Text Product » GA Regional Weather Roundup


Printer-friendly Version
Current Version              Previous Versions:   1  2  3  4  5  6  7  8  9  

Regional Weather Roundup

706
ASUS42 KFFC 171803
RWRGA
WEATHER ROUNDUP FOR GEORGIA
NATIONAL WEATHER SERVICE PEACHTREE CITY GA
200 PM EDT THU APR 17 2014

NOTE: "FAIR" INDICATES FEW OR NO CLOUDS BELOW 12,000 FEET WITH NO
SIGNIFICANT WEATHER AND/OR OBSTRUCTIONS TO VISIBILITY.

* = USE WITH CAUTION. THE STATIONS MARKED WITH AN ASTERISK MAY NOT
REPORT WEATHER SUCH AS PRECIPITATION, FOG, OR THUNDER AND ARE NOT
QUALITY CONTROLLED BY NWS.

THE REMARK "TC" DENOTES TEMPERATURE READING IN DEGREES CELSIUS.

GAZ001>058-171900-
NORTH GEORGIA

CITY           SKY/WX    TMP DP  RH WIND       PRES   REMARKS
ATLANTA        PTSUNNY   59  34  39 E12       30.39F
6HR MIN TEMP:  42; 6HR MAX TEMP:  59;

ATHENS         SUNNY     61  32  33 E9G18     30.43F
6HR MIN TEMP:  38; 6HR MAX TEMP:  61;

CHAMBLEE       PTSUNNY   61  33  35 E9        30.40F
6HR MIN TEMP:  40; 6HR MAX TEMP:  61;

PEACHTREE CITY CLOUDY    62  37  39 NE9       30.38F
6HR MIN TEMP:  44; 6HR MAX TEMP:  62;

ROME           PTSUNNY   62  37  39 E10       30.37F
6HR MIN TEMP:  43; 6HR MAX TEMP:  63;

WEST ATLANTA   PTSUNNY   61  34  36 VRB7      30.39F
6HR MIN TEMP:  45; 6HR MAX TEMP:  61;

GAINESVILLE    SUNNY     58  30  34 E14       30.43F
6HR MIN TEMP:  39; 6HR MAX TEMP:  58;

CARTERSVILLE   MOSUNNY   61  35  37 E8G18     30.39F
6HR MIN TEMP:  43; 6HR MAX TEMP:  62;



CITY           SKY/WX    TMP DP  RH WIND       PRES   REMARKS
DALTON*        SUNNY     61  34  36 CALM      30.39F
LAWRENCEVILLE* SUNNY     59  32  36 E145      30.41F
MARIETTA       PTSUNNY   60  35  38 SE13G21   30.39F
KENNESAW*      MOSUNNY   59  36  41 E12G20    30.41F
$$

GAZ059>098-102>109-171900-
CENTRAL GEORGIA

CITY           SKY/WX    TMP DP  RH WIND       PRES   REMARKS
AUGUSTA-BUSH   SUNNY     64  29  26 NE10      30.42F
6HR MIN TEMP:  43; 6HR MAX TEMP:  64;

AUGUSTA-DANIEL SUNNY     64  31  28 E8        30.42F
6HR MIN TEMP:  44; 6HR MAX TEMP:  64;

COLUMBUS       CLOUDY    60  40  47 E9        30.35F
6HR MIN TEMP:  47; 6HR MAX TEMP:  61;

MACON          CLOUDY    62  43  49 E8        30.38F
6HR MIN TEMP:  44; 6HR MAX TEMP:  62;

ROBINS AFB     CLOUDY    63  42  45 E6        30.37F


CITY           SKY/WX    TMP DP  RH WIND       PRES   REMARKS
LAGRANGE*      CLOUDY    61  42  49 SE7       30.37F
SYLVANIA*      MOSUNNY   67  41  38 E10       30.41F
MILLEDGEVILLE* MOSUNNY   64  27  24 NE6       30.40F
$$

GAZ099>101-110>166-171900-
SOUTH GEORGIA

CITY           SKY/WX    TMP DP  RH WIND       PRES   REMARKS
SAVANNAH       PTSUNNY   67  46  47 NE12      30.39F
6HR MIN TEMP:  48; 6HR MAX TEMP:  68;

VALDOSTA       CLOUDY    69  54  58 NE14G21   30.30F
6HR MIN TEMP:  55; 6HR MAX TEMP:  69;

ALMA           PTSUNNY   65  48  54 E10       30.35F
6HR MIN TEMP:  51; 6HR MAX TEMP:  66;

ST SIMONS      LGT RAIN  60  56  86 NE17G28   30.36F
6HR MIN TEMP:  57; 6HR MAX TEMP:  62; 6HR PCP: TRACE;

FT STEWART     CLOUDY    65  52  64 NE13      30.36F
ALBANY         CLOUDY    65  51  60 E14       30.34F
HUNTER AFB     SUNNY     65  48  52 NE14      30.37F
MOODY AFB      CLOUDY    65  54  67 E13       30.31F
BRUNSWICK      CLOUDY    61  55  82 NE15G21   30.38S


CITY           SKY/WX    TMP DP  RH WIND       PRES   REMARKS
BAINBRIDGE*    PTSUNNY   72  59  64 E21       30.27F
MOULTRIE*      CLOUDY    63  55  77 E8        30.31F
VIDALIA*       CLOUDY    64  41  42 E12G18    30.38F
DOUGLAS*       CLOUDY    64  50  59 E12       30.36F
$$



USA.gov is the U.S. government's official web portal to all federal, state and local government web resources and services.